Weather History for KMLP - December, 2013

Change the Weather History Date:

Saturday, December 14, 2013

  Actual Average (K3TH) Record (K3TH)
Temperature  
Mean Temperature 30 °F -  
Max Temperature 32 °F 31 °F 39 °F (1998)
Min Temperature 28 °F 25 °F 19 °F (1997)
Degree Days  
Heating Degree Days 35    
Moisture  
Dew Point 27 °F    
Average Humidity 87    
Maximum Humidity 93    
Minimum Humidity 82    
Precipitation  
Precipitation 0.03 in - - ()
Sea Level Pressure  
Sea Level Pressure 30.25 in    
Wind  
Wind Speed 7 mph (SW)    
Max Wind Speed 13 mph    
Max Gust Speed 28 mph    
Visibility 2 miles    
Events Fog , Snow    
Averages and records for this station are not official NWS values.
T = Trace of Precipitation, MM = Missing Value Source: NWS Daily Summary

Daily Weather History Graph

Daily Weather History Graph

Search for Another Location

Airport or City:

Trip Planner

Search our weather history database for the weather conditions in past years. The results will help you decide how hot, cold, wet, or windy it might be!

Date:

Astronomy

Dec. 14, 2013 Rise Set
Actual Time 7:23 AM PST 3:52 PM PST
Civil Twilight 6:47 AM PST 4:27 PM PST
Nautical Twilight 6:08 AM PST 5:06 PM PST
Astronomical Twilight 5:30 AM PST 5:44 PM PST
Moon 2:23 PM PST (12/14) 4:40 AM PST (12/14)
Length of Visible Light 9h 40m
Length of Day
8h 28m
Waxing Gibbous, 94% of the Moon is Illuminated
Dec 14
Waxing Gibbous
Dec 17
Full
Dec 25
Last Quarter
Jan 1
New
Jan 7
First Quarter

Hourly Weather History & Observations

Time (PST) Temp. Windchill Dew Point Humidity Pressure Visibility Wind Dir Wind Speed Gust Speed Precip Events Conditions
12:53 AM 28.9 °F 21.9 °F 26.1 °F 89% 30.37 in 0.2 mi Variable 6.9 mph - 0.00 in Fog , Snow Light Snow
1:07 AM 30.2 °F 24.3 °F 26.6 °F 86% 30.26 in 0.2 mi Variable 5.8 mph - 0.00 in Fog , Snow Light Snow
1:31 AM 30.2 °F 25.4 °F 26.6 °F 86% 30.27 in 0.2 mi Variable 4.6 mph - 0.00 in Fog , Snow Light Snow
1:43 AM 30.2 °F 25.4 °F 26.6 °F 86% 30.27 in 0.5 mi Variable 4.6 mph - 0.00 in Fog , Snow Light Snow
1:53 AM 30.0 °F 23.2 °F 26.1 °F 85% 30.38 in 0.2 mi Variable 6.9 mph - 0.00 in Fog , Snow Light Snow
2:01 AM 30.2 °F 24.3 °F 26.6 °F 86% 30.28 in 0.5 mi Variable 5.8 mph - 0.00 in Fog , Snow Light Snow
2:53 AM 30.0 °F 24.1 °F 26.1 °F 85% 30.37 in 0.8 mi Variable 5.8 mph - 0.00 in Snow Light Snow
3:23 AM 30.2 °F 24.3 °F 26.6 °F 86% 30.28 in 1.2 mi Variable 5.8 mph - 0.00 in Snow Light Snow
3:27 AM 30.2 °F 24.3 °F 26.6 °F 86% 30.28 in 2.0 mi Variable 5.8 mph - 0.00 in Snow Light Snow
3:38 AM 30.2 °F 23.4 °F 26.6 °F 86% 30.27 in 1.2 mi Variable 6.9 mph - 0.00 in Snow Light Snow
3:49 AM 30.2 °F 24.3 °F 26.6 °F 86% 30.27 in 0.8 mi Variable 5.8 mph - 0.00 in   Overcast
3:53 AM 30.0 °F 23.2 °F 26.1 °F 85% 30.36 in 1.0 mi Variable 6.9 mph - 0.00 in   Overcast
4:09 AM 30.2 °F 23.4 °F 26.6 °F 86% 30.27 in 0.5 mi Variable 6.9 mph - N/A Fog Light Freezing Fog
4:32 AM 30.2 °F 23.4 °F 26.6 °F 86% 30.26 in 0.2 mi Variable 6.9 mph - 0.00 in Fog , Snow Light Snow
4:53 AM 30.0 °F 22.4 °F 26.1 °F 85% 30.36 in 0.2 mi WSW 8.1 mph - 0.00 in Fog , Snow Light Snow
5:00 AM 30.2 °F 21.9 °F 26.6 °F 86% 30.26 in 0.5 mi WSW 9.2 mph - 0.00 in Fog , Snow Light Snow
5:07 AM 30.2 °F 21.9 °F 26.6 °F 86% 30.26 in 0.2 mi WSW 9.2 mph 16.1 mph 0.00 in Fog , Snow Light Snow
5:31 AM 30.2 °F 23.4 °F 26.6 °F 86% 30.26 in 0.2 mi Variable 6.9 mph - 0.00 in Fog Light Freezing Fog
5:53 AM 30.9 °F 25.2 °F 27.0 °F 85% 30.35 in 0.2 mi Variable 5.8 mph - 0.00 in Fog Light Freezing Fog
6:53 AM 30.9 °F 24.3 °F 27.0 °F 85% 30.36 in 0.5 mi Variable 6.9 mph - 0.01 in Fog , Snow Light Snow
7:20 AM 30.2 °F 23.4 °F 26.6 °F 86% 30.26 in 1.0 mi Variable 6.9 mph - 0.00 in Snow Light Snow
7:29 AM 30.2 °F 22.6 °F 26.6 °F 86% 30.27 in 0.8 mi WSW 8.1 mph - 0.00 in Snow Light Snow
7:53 AM 30.9 °F 24.3 °F 27.0 °F 85% 30.36 in 0.5 mi Variable 6.9 mph - 0.01 in Fog , Snow Light Snow
8:44 AM 30.2 °F 24.3 °F 26.6 °F 86% 30.28 in 0.2 mi Variable 5.8 mph - 0.00 in Fog , Snow Light Snow
8:53 AM 30.9 °F 27.5 °F 27.0 °F 85% 30.23 in 0.5 mi Variable 3.5 mph - 0.00 in Fog , Snow Light Snow
9:18 AM 30.2 °F 23.4 °F 26.6 °F 86% 30.29 in 1.0 mi SSW 6.9 mph - 0.00 in Snow Light Snow
9:29 AM 30.2 °F 22.6 °F 26.6 °F 86% 30.28 in 0.8 mi SSW 8.1 mph 16.1 mph 0.00 in Snow Light Snow
9:53 AM 30.9 °F 24.3 °F 27.0 °F 85% 30.23 in 0.8 mi SW 6.9 mph - 0.01 in Snow Light Snow
10:19 AM 30.2 °F 22.6 °F 26.6 °F 86% 30.27 in 0.2 mi SSW 8.1 mph - 0.00 in Fog , Snow Light Snow
10:27 AM 30.2 °F 23.4 °F 26.6 °F 86% 30.27 in 0.5 mi SW 6.9 mph - 0.00 in Fog , Snow Light Snow
10:34 AM 30.2 °F 23.4 °F 26.6 °F 86% 30.26 in 0.2 mi Variable 6.9 mph - 0.00 in Fog , Snow Light Snow
10:41 AM 30.2 °F 22.6 °F 26.6 °F 86% 30.26 in 0.5 mi SSW 8.1 mph - 0.00 in Fog , Snow Light Snow
10:53 AM 30.9 °F 24.3 °F 27.0 °F 85% 30.20 in 0.2 mi Variable 6.9 mph - 0.00 in Fog , Snow Light Snow
11:09 AM 30.2 °F 24.3 °F 26.6 °F 86% 30.25 in 0.8 mi Variable 5.8 mph - 0.00 in   Mist
11:42 AM 30.2 °F 23.4 °F 28.4 °F 93% 30.25 in 0.2 mi SSW 6.9 mph - 0.00 in Fog Light Freezing Fog
11:53 AM 30.9 °F 24.3 °F 28.0 °F 89% 30.19 in 0.2 mi South 6.9 mph - 0.00 in Fog Light Freezing Fog
12:06 PM 30.2 °F 21.9 °F 28.4 °F 93% 30.24 in 0.2 mi SSW 9.2 mph - N/A Fog Light Freezing Fog
12:53 PM 32.0 °F 25.6 °F 28.9 °F 88% 30.17 in 0.2 mi Variable 6.9 mph - N/A Fog Fog
1:53 PM 32.0 °F 25.6 °F 28.0 °F 85% 30.20 in 0.2 mi Variable 6.9 mph - N/A Fog Fog
2:19 PM 32.0 °F 26.4 °F 28.4 °F 87% 30.25 in 1.0 mi Variable 5.8 mph - N/A   Overcast
2:21 PM 32.0 °F 27.5 °F 28.4 °F 87% 30.25 in 4.0 mi Variable 4.6 mph - N/A   Overcast
2:45 PM 32.0 °F 24.8 °F 28.4 °F 87% 30.26 in 0.2 mi West 8.1 mph - N/A Fog Fog
2:53 PM 32.0 °F 24.8 °F 27.0 °F 82% 30.20 in 0.5 mi WSW 8.1 mph - N/A   Haze
2:55 PM 30.2 °F 21.9 °F 26.6 °F 86% 30.26 in 2.0 mi WSW 9.2 mph - N/A   Overcast
2:58 PM 30.2 °F 23.4 °F 26.6 °F 86% 30.26 in 9.0 mi Variable 6.9 mph - N/A   Overcast
3:17 PM 30.2 °F 22.6 °F 26.6 °F 86% 30.26 in 2.5 mi WSW 8.1 mph - 0.00 in Snow Light Snow
3:23 PM 30.2 °F 22.6 °F 28.4 °F 93% 30.26 in 1.2 mi West 8.1 mph 19.6 mph 0.00 in Snow Light Snow
3:29 PM 30.2 °F 25.4 °F 28.4 °F 93% 30.26 in 1.5 mi Variable 4.6 mph 19.6 mph 0.00 in Snow Light Snow
3:37 PM 30.2 °F 24.3 °F 28.4 °F 93% 30.25 in 1.0 mi Variable 5.8 mph - 0.00 in Snow Light Snow
3:53 PM 32.0 °F 25.6 °F 28.9 °F 88% 30.19 in 2.0 mi WSW 6.9 mph 17.3 mph 0.00 in Snow Light Snow
4:01 PM 32.0 °F 27.5 °F 28.4 °F 87% 30.24 in 1.2 mi Variable 4.6 mph - 0.00 in Snow Light Snow
4:10 PM 30.2 °F 23.4 °F 28.4 °F 93% 30.25 in 0.5 mi Variable 6.9 mph - 0.00 in Fog , Snow Light Snow
4:19 PM 30.2 °F 24.3 °F 28.4 °F 93% 30.26 in 0.2 mi WSW 5.8 mph - 0.00 in Fog , Snow Light Snow
4:31 PM 32.0 °F 26.4 °F 28.4 °F 87% 30.25 in 1.0 mi Variable 5.8 mph - 0.00 in   Overcast
4:34 PM 32.0 °F 26.4 °F 28.4 °F 87% 30.25 in 4.0 mi Variable 5.8 mph - 0.00 in   Overcast
4:45 PM 30.2 °F 26.7 °F 28.4 °F 93% 30.24 in 10.0 mi Variable 3.5 mph - 0.00 in   Overcast
4:53 PM 30.9 °F 24.3 °F 27.0 °F 85% 30.18 in 10.0 mi Variable 6.9 mph - 0.00 in   Overcast
5:01 PM 30.2 °F 22.6 °F 26.6 °F 86% 30.22 in 10.0 mi SSW 8.1 mph - N/A   Overcast
5:53 PM 30.0 °F 22.4 °F 27.0 °F 88% 30.15 in 10.0 mi SW 8.1 mph 19.6 mph N/A   Overcast
6:53 PM 30.0 °F 20.5 °F 26.1 °F 85% 30.16 in 10.0 mi SW 11.5 mph 19.6 mph N/A   Overcast
7:53 PM 28.9 °F 19.8 °F 25.0 °F 85% 30.15 in 10.0 mi SW 10.4 mph - N/A   Clear
8:53 PM 28.0 °F 20.8 °F 25.0 °F 88% 30.16 in 10.0 mi WSW 6.9 mph - N/A   Clear
9:53 PM 28.0 °F 18.1 °F 25.0 °F 88% 30.15 in 9.0 mi West 11.5 mph 25.3 mph 0.00 in   Clear
10:53 PM 28.9 °F 18.6 °F 24.1 °F 82% 30.14 in 9.0 mi West 12.7 mph 26.5 mph 0.00 in   Clear
11:53 PM 28.9 °F 19.2 °F 24.1 °F 82% 30.14 in 9.0 mi West 11.5 mph 27.6 mph 0.00 in   Clear